Showing default

ETV-A1, 51060

Orbit data source: Space-Track

ETV-A1, 51060 is a payload satellite owned by Sen (UK) in SSO that was launched on Thu, 13 Jan 2022 UTC via an FALCON 9 launch vehicle from the Air Force Eastern Test Range (AFETR). Payload-class satellites include a variety of spacecraft equipped with specific instruments for various scientific and technological missions. These include communications satellites like Starlink; space stations such as the ISS; scientific satellites like the Hubble; Earth observation satellites from companies like Planet Labs, Umbra, and HawkEye 360; GPS; miniature CubeSats for education and research; and military/defense satellites.

Loading next visibility...
Identifier
51060, 2022-002CE
Orbit
SSO
Country
Flag of UKUK
Related business
Manufacturer
NanoAvionics
Mission
Operational Commercial Imaging
Bus & Motor
CUBESAT 16U, Unknown motor
Mass
~20 kg wet, ~20 kg dry
Launch date (UTC)
2022-01-13 (5 years ago)
Launch vehicle
FALCON 9
Launch site
Air Force Eastern Test Range (AFETR)
Object type
Payload
Rocket body
Debris
Shape & HBR
Box + 2 Pan, 0.2 m
Radar Cross Section
0.100 m², Medium (>0.1 m² and < 1m²)

Expand to show TLE details & history
Last TLE update: 8 hours ago

TLE from 8 hours ago
0 ETV-A1
1 51060U 22002CE  26254.60894481  .00008748  00000-0  20504-3 0  9998
2 51060  97.2798 320.7246 0005804  46.9358 313.2374 15.42303937259154
Epoch: 2026-09-11T14:36Z
TLE epoch observation values (Epoch: 2026-09-11T14:36:52.831Z)
Latitude
-0.00009°
Longitude
110.87463°
Altitude
439.726 km
Speed
7.65 km/s
True Right ascension
21h 22m 53s
True Declination
0° 00' 00"
Sunlit
Object was in full shadow at epoch
Visualization orbit readout
Latitude
Unknown
Longitude
Unknown
Altitude
Unknown
Speed
Unknown
Apparent Right ascension
Unknown
Apparent Declination
Unknown
Sunlit
N/A
Visualization observer readout
Local Sidereal Time
14:54:40
Azimuth
Unknown
Elevation
Unknown
Doppler factor
Unknown
Orbital elements
Apogee altitude
440.197 km
Perigee altitude
432.287 km
Semi-major axis
6,814.379 km
Eccentricity
0.00058
Inclination
97.2798°
RAAN
320.7246°
Arg. of periapsis
46.9358°
True anomaly
313.18892°
Mean anomaly
313.2374°
Eccentric anomaly
313.21316°
Mean motion
3.85837 °/min
Orbital period
93.3 mins
BSTAR
0.00020504
Loading maneuver chart data...
Computing Atmospheric mass density...
Loading historical data...
Loading historical data...
Loading historical data...
Loading historical data...
Loading historical data...
Loading historical data...
Loading historical data...

Documentation

Showing up to 5 results
|